Location: Kapuskasing
(49.3803°N, 82.4001°W)
Time: 11:21:22
(UTC-04:00)

Envisat - Pass Details

Date: 20 March 2026
Orbit: 761 x 762 km, 98.4° (Epoch: 19 April)

Event Time Altitude Azimuth Distance (km) Brightness Sun altitude
Rises 05:31:53 0° 5° (N) 3,237 6.7 -19.8°
Reaches altitude 10° 05:34:30 10° 353° (N) 2,307 5.7 -19.4°
Maximum altitude 05:38:37 26° 299° (WNW) 1,486 4.2 -18.8°
Enters shadow 05:39:06 25° 290° (WNW) 1,499 4.1 -18.8°
